Change the Weather History Date:

Wednesday, June 11, 2014

  Actual Average Record
Temperature  
Mean Temperature 70 °F 68 °F  
Max Temperature 77 °F 78 °F 100 °F (1933)
Min Temperature 62 °F 58 °F 35 °F (1972)
Degree Days  
Heating Degree Days 0 2  
Month to date heating degree days 9 27  
Since 1 June heating degree days 9 27  
Since 1 July heating degree days 6945 6281  
Cooling Degree Days 5 5  
Month to date cooling degree days 43 40  
Year to date cooling degree days 128 96  
Since 1 June cooling degree days 43 40  
Growing Degree Days 20 (Base 50)    
Moisture  
Dew Point 64 °F    
Average Humidity 81    
Maximum Humidity 93    
Minimum Humidity 68    
Precipitation  
Precipitation 0.69 in 0.13 in 2.81 in (2009)
Month to date precipitation 2.97 1.45  
Year to date precipitation 18.05 15.17  
Sea Level Pressure  
Sea Level Pressure 29.72 in    
Wind  
Wind Speed 9 mph (SSE)    
Max Wind Speed 25 mph    
Max Gust Speed 33 mph    
Visibility 6 miles    
Events Rain , Thunderstorm    
T = Trace of Precipitation, MM = Missing Value Source: NWS Daily Summary

Daily Weather History Graph

Daily Weather History Graph

Search for Another Location

Airport or City:

Trip Planner

Search our weather history database for the weather conditions in past years. The results will help you decide how hot, cold, wet, or windy it might be!

Date:

Astronomy

Jun. 11, 2014 Rise Set
Actual Time 6:10 AM EDT 9:19 PM EDT
Civil Twilight 5:36 AM EDT 9:53 PM EDT
Nautical Twilight 4:52 AM EDT 10:37 PM EDT
Astronomical Twilight 4:00 AM EDT 11:29 PM EDT
Moon 7:47 PM EDT (6/11) 5:01 AM EDT (6/11)
Length of Visible Light 16h 17m
Length of Day
15h 09m
Waxing Gibbous, 97% of the Moon is Illuminated
Jun 11
Waxing Gibbous
Jun 13
Full
Jun 19
Last Quarter
Jun 27
New
Jul 5
First Quarter

Hourly Weather History & Observations

Time (EDT) Temp. Dew Point Humidity Pressure Visibility Wind Dir Wind Speed Gust Speed Precip Events Conditions
12:41 AM 66.9 °F 63.0 °F 87% 29.78 in 6.0 mi ESE 12.7 mph - 0.00 in   Overcast
12:51 AM 66.2 °F 62.6 °F 88% 29.77 in 6.0 mi ESE 15.0 mph - 0.00 in   Overcast
12:54 AM 66.9 °F 63.0 °F 87% 29.76 in 6.0 mi ESE 15.0 mph - 0.00 in   Overcast
1:05 AM 66.2 °F 62.6 °F 88% 29.77 in 7.0 mi ESE 15.0 mph - N/A   Overcast
1:13 AM 66.9 °F 63.0 °F 87% 29.77 in 7.0 mi ESE 13.8 mph - 0.00 in Rain Light Rain
1:27 AM 66.9 °F 63.0 °F 87% 29.76 in 7.0 mi East 10.4 mph - 0.00 in Rain Light Rain
1:54 AM 66.0 °F 63.0 °F 90% 29.74 in 6.0 mi East 9.2 mph - 0.01 in Rain Light Rain
2:10 AM 66.0 °F 63.0 °F 90% 29.74 in 6.0 mi ESE 11.5 mph - 0.00 in   Overcast
2:19 AM 66.0 °F 63.0 °F 90% 29.74 in 2.5 mi ESE 11.5 mph - 0.00 in Rain Light Rain
2:42 AM 66.0 °F 64.0 °F 93% 29.73 in 1.8 mi East 11.5 mph - 0.23 in Rain Heavy Rain
2:48 AM 66.2 °F 64.4 °F 94% 29.73 in 3.0 mi East 10.4 mph - 0.24 in Rain Light Rain
2:54 AM 66.0 °F 64.0 °F 93% 29.71 in 4.0 mi East 10.4 mph - 0.24 in Rain Light Rain
3:27 AM 66.0 °F 63.0 °F 90% 29.71 in 2.5 mi ESE 15.0 mph - 0.02 in Rain Heavy Rain
3:34 AM 66.0 °F 63.0 °F 90% 29.71 in 3.0 mi ESE 11.5 mph - 0.03 in Rain Light Rain
3:54 AM 66.0 °F 63.0 °F 90% 29.70 in 2.5 mi ESE 13.8 mph - 0.05 in Rain Rain
4:06 AM 66.9 °F 63.0 °F 87% 29.70 in 4.0 mi ESE 15.0 mph - 0.00 in Rain Light Rain
4:15 AM 66.9 °F 63.0 °F 87% 29.70 in 4.0 mi SE 13.8 mph - 0.00 in Rain Light Rain
4:54 AM 66.9 °F 64.0 °F 90% 29.69 in 4.0 mi ESE 12.7 mph - 0.01 in   Overcast
5:23 AM 66.9 °F 64.0 °F 90% 29.70 in 5.0 mi SE 10.4 mph - N/A   Overcast
5:39 AM 66.9 °F 64.0 °F 90% 29.71 in 5.0 mi SE 10.4 mph - 0.00 in Rain Light Rain
5:54 AM 66.9 °F 64.0 °F 90% 29.70 in 5.0 mi SE 11.5 mph - 0.00 in Rain Light Rain
5:57 AM 66.9 °F 64.0 °F 90% 29.71 in 2.5 mi SE 10.4 mph - 0.00 in Rain Light Rain
6:36 AM 66.9 °F 64.0 °F 90% 29.71 in 6.0 mi SE 9.2 mph - 0.06 in Rain Light Rain
6:45 AM 66.9 °F 64.0 °F 90% 29.71 in 6.0 mi SE 9.2 mph - 0.06 in   Overcast
6:54 AM 66.9 °F 64.0 °F 90% 29.70 in 5.0 mi SE 10.4 mph - 0.06 in   Overcast
7:04 AM 66.9 °F 64.0 °F 90% 29.72 in 4.0 mi SE 8.1 mph - N/A   Overcast
7:13 AM 66.9 °F 64.0 °F 90% 29.72 in 3.0 mi SSE 9.2 mph - 0.00 in Rain Light Rain
7:54 AM 68.0 °F 64.0 °F 87% 29.71 in 8.0 mi SSE 8.1 mph - 0.00 in   Overcast
8:01 AM 68.0 °F 64.0 °F 87% 29.73 in 8.0 mi SSE 8.1 mph - N/A   Overcast
8:52 AM 69.8 °F 64.4 °F 83% 29.73 in 10.0 mi South 8.1 mph - N/A   Overcast
8:54 AM 69.1 °F 64.9 °F 87% 29.72 in 10.0 mi South 5.8 mph - N/A   Overcast
9:24 AM 69.1 °F 64.9 °F 87% 29.74 in 10.0 mi South 6.9 mph - N/A   Overcast
9:54 AM 70.0 °F 64.9 °F 84% 29.73 in 10.0 mi South 8.1 mph - 0.00 in   Overcast
10:54 AM 72.0 °F 64.0 °F 76% 29.72 in 10.0 mi South 10.4 mph - N/A   Overcast
11:17 AM 72.0 °F 63.0 °F 73% 29.73 in 10.0 mi South 10.4 mph - N/A   Mostly Cloudy
11:54 AM 73.9 °F 63.0 °F 68% 29.71 in 10.0 mi South 13.8 mph - N/A   Overcast
12:54 PM 73.9 °F 63.0 °F 68% 29.71 in 9.0 mi SSW 10.4 mph - 0.00 in Rain Light Rain
1:09 PM 71.1 °F 64.9 °F 81% 29.72 in 1.8 mi SW 6.9 mph - 0.03 in Rain Heavy Rain
1:16 PM 71.1 °F 64.0 °F 78% 29.72 in 3.0 mi SSW 5.8 mph - 0.08 in Rain Light Rain
1:54 PM 75.0 °F 64.9 °F 71% 29.70 in 10.0 mi SSE 9.2 mph - 0.08 in   Scattered Clouds
2:17 PM 72.0 °F 66.0 °F 81% 29.71 in 4.0 mi South 12.7 mph - 0.01 in Rain , Thunderstorm Rain
2:21 PM 71.1 °F 64.9 °F 81% 29.72 in 1.8 mi South 10.4 mph - 0.06 in Rain , Thunderstorm Heavy Rain
2:29 PM 72.0 °F 64.9 °F 78% 29.71 in 4.0 mi South 8.1 mph - 0.14 in Rain , Thunderstorm Light Rain
2:46 PM 75.0 °F 66.9 °F 76% 29.71 in 10.0 mi South 9.2 mph - 0.14 in   Mostly Cloudy
2:54 PM 73.9 °F 64.9 °F 73% 29.69 in 10.0 mi South 6.9 mph - 0.14 in   Scattered Clouds
3:54 PM 73.9 °F 66.0 °F 76% 29.69 in 10.0 mi South 9.2 mph - 0.00 in Rain Light Rain
4:54 PM 75.9 °F 66.0 °F 71% 29.68 in 10.0 mi Variable 4.6 mph - 0.09 in   Mostly Cloudy
5:19 PM 70.0 °F 64.9 °F 84% 29.71 in 10.0 mi WNW 13.8 mph - 0.00 in Rain , Thunderstorm Light Thunderstorms and Rain
5:36 PM 68.0 °F 64.4 °F 88% 29.71 in 9.0 mi WNW 11.5 mph - N/A Rain Light Rain
5:54 PM 68.0 °F 64.0 °F 87% 29.70 in 10.0 mi NW 11.5 mph - 0.01 in   Mostly Cloudy
6:54 PM 71.1 °F 64.9 °F 81% 29.69 in 10.0 mi North 8.1 mph - 0.00 in Rain Light Rain
7:26 PM 71.1 °F 64.9 °F 81% 29.70 in 10.0 mi North 6.9 mph - 0.00 in Rain Light Rain
7:37 PM 71.1 °F 64.9 °F 81% 29.71 in 10.0 mi North 8.1 mph - 0.00 in   Mostly Cloudy
7:54 PM 69.1 °F 64.0 °F 84% 29.70 in 10.0 mi NW 6.9 mph - 0.00 in Rain Light Rain
8:17 PM 66.0 °F 62.1 °F 87% 29.72 in 5.0 mi NW 10.4 mph - 0.00 in Rain Light Rain
8:54 PM 64.9 °F 61.0 °F 87% 29.71 in 4.0 mi NW 3.5 mph - 0.00 in   Overcast
9:54 PM 64.0 °F 61.0 °F 90% 29.72 in 5.0 mi WNW 5.8 mph - N/A   Overcast
10:37 PM 64.0 °F 61.0 °F 90% 29.75 in 2.0 mi NW 5.8 mph - N/A   Overcast
10:50 PM 62.6 °F 60.8 °F 94% 29.75 in 1.5 mi WNW 5.8 mph - N/A   Overcast
10:54 PM 63.0 °F 61.0 °F 93% 29.74 in 1.5 mi WNW 4.6 mph - N/A   Overcast
11:11 PM 64.0 °F 61.0 °F 90% 29.76 in 2.5 mi NW 4.6 mph - N/A   Overcast
11:21 PM 64.0 °F 61.0 °F 90% 29.75 in 3.0 mi NNW 6.9 mph - N/A   Overcast
11:40 PM 62.6 °F 60.8 °F 94% 29.75 in 1.8 mi NW 5.8 mph - N/A   Overcast
11:54 PM 63.0 °F 60.1 °F 90% 29.74 in 1.2 mi NW 3.5 mph - N/A   Overcast